Погода в Павлодаре

Погода в Павлодаре : погода сейчас, прогноз погоды и архив. Всё, что Вы хотите узнать о погоде в Павлодаре!

Поиск расширенной информации на нашем сайте:

Полезная информация: Эти новые рецепты закусок не оставят вас равнодушными

Другие новости

Новости СМИ2

Главная страница сайта

Новости сайта

03.07.2017

Напоминаем, что на нашем специализированном сайте Метеоцентр.Азия вы можете получить высокодетализированные автоматические прогнозы погоды по пунктам России, СНГ и мира в авиационном формате (включающие направление и скорость ветра, видимость, явления погоды, количество и форму облачности, нижнюю и верхнюю границу облачности).

Рекомендуем: http://vengriya-opt.com.ua/ купить нижнее белье оптом.

Погода в Павлодаре - сегодня

Время (UTC), дата Ветер
(°,м/с) 
Видим.   Явления Облачность Т
(°С)
Тd
(°С)
f(%) Тe
(°С)
Pmin
(гПа)
dP
(гПа)
Po
(мм)
O2
(г/м3)
Тmin Tmax R s Состояние
почвы
18 16.04.18 320 (СЗ) 20000 м    8/6 600 м средняя 
[Sc diur, vesp|Ac trans]
+6.3 -1.5 57 +5  1012.1  1.5  748  295    +15.8       
03 17.04.18 300 (СЗ) 20000 м  {ливн. осадки}  8/5 600 м кучево-дожд., средняя 
[Cb cap|Ac trans]
+3.5 +0 78 +2  1016.8  2.1  751  299      0.4     
09 17.04.18 290 (З) 20000 м    8/6 600 м кучево-дожд., средняя 
[Cb cap|Ac trans]
+6.4 -8.8 33 +5  1018.5  0.2  753  297           
12 17.04.18 320 (СЗ) 20000 м    9/6 1000 м средняя 
[Sc|Ac trans]
+4.8 -9.9 34 +4  1019.2  0.5  753  299           
15 17.04.18 340 (С) 20000 м    8/4 1000 м средняя 
[Sc|Ac trans]
+3.2 -11.4 33 +3  1020.4  1.2  754  301    +7.4       
18 17.04.18 010 (С) 20000 м    3/0 верхняя 
[Ci fib]
-2.8 -9.5 60 -2  1021.5  0.8  755  308    +7.4       
21 17.04.18 070 (В) 20000 м    3/0 верхняя 
[Ci fib]
-4.3 -9.9 65 -4  1021.8  0.1  755  310           
00 18.04.18 100 (В) 20000 м    4/0 средняя, верхняя 
[Ac trans|Ci fib]
-6 -10.9 68 -7  1022.3  0.4  755  312           
06 18.04.18 090 (В) 20000 м    6/0 верхняя 
[Cs]
+5.8 -14.7 21 +6  1022.8  0.4  756  300  -6.7         
09 18.04.18 050 (СВ) 20000 м    8/4 1000 м верхняя 
[Cu hum|Ci fib]
+7.6 -12.7 22 +8  1021.9  -0.8  755  297           
12 18.04.18 280 (З) 20000 м    6/3 1000 м кучево-дожд., средняя 
[Cb cap|Ac trans]
+7 -13.6 21 +7  1021.3  -0.7  755  298           
15 18.04.18 090 (В) 20000 м    8/5 1000 м кучево-дожд., средняя 
[Cb cap|Ac trans]
+1.8 -9.1 44 +1  1021.5  755  303    +7.7       
18 18.04.18 130 (ЮВ) 20000 м    3/0 средняя 
[Ac trans]
+1.3 -10.5 41 1020.6  -1  754  303    +7.7       
21 18.04.18 140 (ЮВ) 20000 м    8/3 1000 м средняя 
[Sc|Ac trans]
+0.2 -7.8 55 -2  1019  -1.6  753  304           
03 19.04.18 110 (В) 10 км  слаб. ливневой снег  10/10 600 м кучево-дожд. 
[Cb cap]
+0.7 -2.9 77 -2  1016.7  -0.7  751  302      0.3     
09 19.04.18 350 (С) 20000 м    10/8 600 м кучево-дожд., средняя 
[Cb cap|Ac und]
+6.2 -5.4 43 +4  1017  0.9  752  297           
12 19.04.18 330 (СЗ) 20000 м    9/8 600 м кучево-дожд., средняя 
[Cb cap|Ac trans]
+5.8 -3.7 50 +4  1019.5  2.4  754  298           
21 19.04.18 160 (Ю) 20000 м    ясно 
-4.8 -8 78 -4  1023.6  756  311           
00 20.04.18 170 (Ю) 20000 м    3/0 верхняя 
[Ci fib]
-6.8 -8.8 86 -6  1023.9  0.3  756  313           
06 20.04.18 210 (ЮЗ) 20000 м    6/0 верхняя 
[Ci fib]
+9.2 -4.6 37 +7  1020.6  -1.6  755  295  -7         
09 20.04.18 200 (Ю) 8{16}  20000 м    8/0 средняя, верхняя 
[Ac trans|Ci fib]
+13.1 -4.6 29 +12  1018.3  -2.1  753  290           
12 20.04.18 210 (ЮЗ) 20000 м    10/8 600 м кучево-дожд., средняя 
[Cb cap|Ac trans]
+14.2 +0.5 39 +13  1016.4  -1.8  752  288           
15 20.04.18 230 (ЮЗ) 20000 м    8/3 600 м средняя 
[Sc diur, vesp|Ac trans]
+11.9 +1.5 49 +12  1016.9  0.3  752  290    +14.8       
18 20.04.18 170 (Ю) 20000 м    10/8 600 м средняя 
[Sc diur, vesp|Ac trans]
+7.2 +2.1 70 +8  1016.1  -1  751  295    +14.8       
21 20.04.18 170 (Ю) 20000 м    10/10 600 м 
[Sc diur, vesp]
+6.1 +3.7 85 +7  1015.4  -0.7  751  295           
Время (UTC), дата Ветер
(°,м/с) 
Видим.   Явления Облачность Т
(°С)
Тd
(°С)
f(%) Тe
(°С)
Pmin
(гПа)
dP
(гПа)
Po
(мм)
O2
(г/м3)
Тmin Tmax R s Состояние
почвы

Для получения пояснительной информации подведите курсор к названию столбца.

ПОГОДА в Павлодаре - архив

Всё, что Вы хотите узнать о погоде в Павлодаре - удобно и подробно!

Выберите нужную дату (начиная с 1 января 2015* года) и нажмите кнопку "Найти".
Будут отображены архивные сводки погоды по пункту Павлодар, начиная с указанной даты.


Отображать данные в формате CSV (для использования в таблицах Excel)


Внимание! Наш архив погоды предназначен исключительно для личного некоммерческого использования в познавательных целях. Если Вам необходимы официальные справки о состоянии погоды (для производственных, юридических, коммерческих и т.п. целей), обращайтесь в органы Росгидромета.

*Примечание: данная дата относится к архиву по метеостанциям СССР (Россия, СНГ, Балтия).
Архив по метеостанциям Зарубежной Европы и Азии (кроме Китая) хранится 10 дней, по другим регионам земного шара (Китай, Африка, Америка, Австралия, Океания) - 1 день.

Павлодар - район местоположения метеостанции


Название, широта, долгота, высота метеостанции:
Павлодар 52.1°ш. 77.1°д. 125 м над ур. моря [Казахстан]

Дополнительная информация

В oтличие oт бoльшинства пoгoдных сайтoв мы публикуем пoдрoбную метеoинфoрмацию в детальнoм прoфессиoнальнoм фoрмате.

Характеристики температуры и влажнoсти вoздуха измеряются на высoте 2 м в тени вдали oт зданий и деревьев.
Скoрoсть ветра измеряется на высoте 10 м (на урoвне рoста челoвека скoрoсть ветра ниже в 1.5-2 раза). Если метеoстанция нахoдится в гoрoде или в лесу, тo скoрoсть ветра занижена на 2-4 м/с пo сравнению с oткрытым местoм. Скoрoсть ветра над акватoриями крупных рек и oзёр, а также на вершинах хoлмoв на 2-5 м/с выше, чем в oбычных услoвиях.
Атмoсфернoе давление в разных тoчках местнoсти мoжет значительнo oтличаться oт давления на метеoстанции, в зависимoсти oт услoвий рельефа (при пoдъёме на 10 м давление пoнижается примернo на 1 мм рт.ст.).